sat.trackr.live / text

‹ back to catalog

STARLINK-31077

NORAD 58637 · 2023-203V

PAYLOAD ACTIVE UNKNOWN

§ Identity

Operator
Country
US
Launch date
2023-12-23
Launch site
AFETR
Launch vehicle
Mass (kg)
RCS (m²)

Purposes: comms

External: N2YO · Heavens-Above · Gunter

§ Orbital elements

Epoch: 2026-09-20T09:05:03.127488Z

Period
94.27 min
Inclination
43.0035°
Eccentricity
0.0000891
Mean motion
15.27577116 rev/d
Perigee alt
482.4 km
Apogee alt
483.7 km
Semi-major
6,861.2 km
B*
-9.1977e-7
RAAN
47.8431°
Arg perigee
267.2139°
Mean anomaly
92.8610°
Rev number
15,456

§ Raw data

STARLINK-310771 58637U 23203V   26263.37850842 -.00000287  00000+0 -91977-6 0  99922 58637  43.0035  47.8431 0000891 267.2139  92.8610 15.27577116154560

JSON: /api/v1/satellites/58637 · /tle

For live sub-satellite position, see the globe view (requires WebGL).

§ Visibility from observer

Set your observer location to see the next 7 days of passes ≥ 10°. The values pass through the URL so the page stays shareable.

No JS? Fill the form by hand. The geolocation button needs JavaScript.